Location: Newark
(46.8167°N, 54.2000°W)
Time: 23:17:22
(UTC+00:00)

OTV 5 (USA 277) - Visible Passes

Search period start: 14 October 2019 00:00
Search period end: 24 October 2019 00:00
Orbit: 310 x 324 km, 54.5° (Epoch: 08 October)

Date Brightness Start Highest point End Pass type
(mag) Time Alt. Az. Time Alt. Az. Time Alt. Az.
14 Oct ? 08:11:34 18° N 08:12:05 18° N 08:14:08 10° ENE visible
15 Oct ? 08:25:45 19° NNW 08:26:54 25° NNE 08:29:15 10° ENE visible
16 Oct ? 08:40:00 19° NW 08:41:37 41° NNE 08:44:15 10° E visible
17 Oct ? 07:23:25 12° ENE 07:23:25 12° ENE 07:23:48 10° ENE visible
17 Oct ? 08:54:19 18° WNW 08:56:14 90° NW 08:58:59 10° SE visible
18 Oct ? 07:37:49 19° ENE 07:37:49 19° ENE 07:38:53 10° E visible
18 Oct ? 09:08:44 14° WNW 09:10:43 35° SW 09:13:16 10° SSE visible
19 Oct ? 07:52:20 26° E 07:52:20 26° E 07:53:46 10° ESE visible
19 Oct ? 09:23:24 10° W 09:25:05 15° SW 09:26:46 10° S visible
20 Oct ? 08:06:58 25° SSE 08:06:58 25° SSE 08:08:18 10° SE visible
21 Oct ? 08:21:45 13° S 08:21:45 13° S 08:22:17 10° SSE visible
